Regional Weather Roundup
Issued by NWS Pendleton, OR

Home | Current Version | Previous Version | Text Only | Print | Product List | Glossary On
Versions: 1 2 3 4 5 6 7 8 9 10 11 12 13 14 15 16 17 18 19 20 21 22 23 24 25 26 27 28 29 30 31 32 33 34 35 36 37 38 39 40 41 42 43 44 45 46 47 48 49 50
000
ASUS46 KPDT 181525
RWRPDT
PENDLETON REGIONAL WEATHER ROUNDUP
NATIONAL WEATHER SERVICE PENDLETON OREGON
700 AM PST WED JAN 18 2017

NOTE: FAIR INDICATES FEW OR NO CLOUDS BELOW 12,000 FEET WITH NO
SIGNIFICANT WEATHER AND/OR OBSTRUCTIONS TO VISIBILITY.

# INDICATES UNOFFICIAL STATION AND DATA

WAZ520-181610-
EAST SLOPES OF WASHINGTON CASCADES

CITY            SKY/WX      TMP DP  RH  WIND    PRES   REMARKS
#CLE ELUM HS    N/A         22  17  81  CALM    29.58F
#CLE ELUM LAKE  N/A         18  16  92  CALM    29.72F
#GLENWOOD       N/A         32  31  96  CALM    29.65F
#NELSON 3SW     N/A         17  15  92  CALM    29.96S
#NILE           N/A         21  20  96  CALM    28.95F
#RONALD 2NW     N/A         20  N/A N/A NW1     29.42F
#TEANAWAY 4NE   N/A         21  20  96  CALM    N/A
#TROUT LAKE 1NE N/A         31  30  96  CALM    29.67F
#TROUT LAKE 1E  N/A         31  30  96  CALM    29.58F
$$

WAZ521-181610-
SIMCOE HIGHLANDS

CITY            SKY/WX      TMP DP  RH  WIND    PRES   REMARKS
#BICKLETON HS   N/A         36  34  92  S21     29.18F WCI 25
#CENTERVILLE 1SWN/A         20  18  92  CALM    29.67F
#GOLDENDALE 1NE N/A         28  26  92  CALM    N/A
#GOLDENDALE 4W  N/A         23   7  50  CALM    29.62F
#GOODNOE HILLS  N/A         20  15  81  NE2     N/A
#LYLE 6NE       N/A         20  19  96  SW5     29.68F
#PITT 4SE       N/A         25  24  96  CALM    29.73F
$$

WAZ026-181610-
KITTITAS VALLEY

CITY            SKY/WX      TMP DP  RH  WIND    PRES   REMARKS
ELLENSBURG AP   LGT FRZ RAI 25  21  84  CALM    29.61F FOG
#ELLENSBURG CWU N/A         23  21  92  CALM    29.67F
#ELLENSBURG 3NE N/A         22  20  92  CALM    27.72F
#KITTITAS 4N    N/A         24  20  84  S1      29.63F
#KITTITAS 3S    N/A         23  21  92  CALM    29.72F
#THORP 6N       N/A         20  19  96  E2      29.77F
$$

WAZ027-181610-
YAKIMA VALLEY

CITY            SKY/WX      TMP DP  RH  WIND    PRES   REMARKS
SUNNYSIDE AP    CLOUDY      21  18  88  CALM    29.68F FOG
YAKIMA AIRPORT  LGT FRZ RAI 27  23  85  CALM    29.64F FOG
YAKIMA-VAGABOND LGT FRZ RAI 23  21  92  E5      29.59F FOG
#MABTON         N/A         22  19  88  CALM    29.70S
#NACHES 2SW     N/A         24  23  96  CALM    29.62S
#TERRACE HTS    N/A         24  22  92  CALM    29.71F
#TOPPENISH      N/A         24  21  88  CALM    29.65F
#W YAKIMA       N/A         24  23  96  CALM    29.72F
#WHITE SWAN 5E  N/A         24  22  92  CALM    29.74F
#WILEY CITY 3W  N/A         25  20  81  CALM    29.59F
$$

WAZ028-181610-
LOWER COLUMBIA BASIN...WASHINGTON

CITY            SKY/WX      TMP DP  RH  WIND    PRES   REMARKS
HANFORD         LGT FRZ RAI 25  23  92  W5      29.68F FOG
PASCO           FRZ RAIN    25  23  92  W6      29.71F
PROSSER AWOS    N/A         21  21  100 VRB5    29.72F
RICHLAND AWOS   MOCLDY      27  24  88  CALM    29.71F
#BENTON CITY    N/A         21  19  92  CALM    29.66F
#CONNELL 5N     N/A         28  27  96  N3      29.72F
#CONNELL 5NW    N/A         27  25  92  N3      29.68F
#ELTOPIA 6NW    N/A         24  23  96  CALM    28.65F
#KAHLOTUS       N/A         28  27  96  CALM    29.72F
#KENNEWICK 3S   N/A         23  20  88  CALM    29.76F
#PATERSON       N/A         22  20  92  CALM    29.71F
#SAGEMOOR 2W    N/A         24  21  88  N3      29.58F
#TOUCHET 2S     N/A         24  22  92  NW5     29.72F
#WEST PASCO     N/A         25  22  88  CALM    29.67F
$$

WAZ029-181610-
FOOTHILLS OF THE BLUES...WASHINGTON

CITY            SKY/WX      TMP DP  RH  WIND    PRES   REMARKS
WALLA WALLA AP  LGT FRZ RAI 29  27  92  E7      29.63F FOG
#CLYDE 6NW      N/A         28  27  96  CALM    29.72F
#DAYTON SCHOOL  N/A         31  27  85  NW1     29.66F
#LOWDEN 2SE     N/A         26  24  92  W1      29.65F
#PLEASANT VIEW 1N/A         30  29  96  CALM    29.80F
#PRESCOTT       N/A         27  25  92  CALM    29.73S
#WHITMAN COLLEGEN/A         28  27  96  N1      29.77F
#WAITSBURG 5S   N/A         31  30  96  SW1     29.84S
#WAITSBURG 8N   N/A         36  N/A N/A S6      29.44F
#WALLA WALLA 5E N/A         35  31  85  N7      N/A
#WHITMAN MISSIONN/A         25  23  92  CALM    29.74F
$$

WAZ030-181610-
BLUE MOUNTAINS...WASHINGTON

CITY            SKY/WX      TMP DP  RH  WIND    PRES   REMARKS
#DIXIE 5SE      N/A         43  36  76  SE21G33 29.53R WCI 34
#SKI BLUEWOOD   N/A         30  27  88  SW5     29.69R
$$

ORZ009-041-WAZ024-181610-
COLUMBIA RIVER GORGE

CITY            SKY/WX      TMP DP  RH  WIND    PRES   REMARKS
HOOD RIVER AP   MXD PCPN    27  23  85  CALM    29.64F
THE DALLES AP   CLOUDY      25  22  88  W3      29.68F FOG
#ARLINGTON AIRPON/A         21  20  96  CALM    29.73F
#ARLINGTON HS   N/A         23  19  84  CALM    29.60F
#CELILO DOT     N/A         25  19  78  NE3     N/A
#LYLE           N/A         26  23  88  E2      29.70F
#MOSIER 1S      N/A         23  16  74  CALM    29.62F
#MURDOCK        N/A         25  22  88  S1      29.66F
#RUFUS DOT      N/A         24  20  84  SE8     N/A
#SMITHVILLE     N/A         25  22  88  S2      29.64F

$$

ORZ510-181610-
NORTH CENTRAL OREGON

CITY            SKY/WX      TMP DP  RH  WIND    PRES   REMARKS
#ANTELOPE       N/A         44  36  73  S7      29.51F
#CHENOWITH 1W   N/A         18  17  96  E5      N/A
#COW CYN RST AREN/A         44  N/A N/A SE12    N/A    WCI 38
#DUFUR 9E       N/A         33  32  96  W10G35  29.76F
#GRASS VALLEY 1SN/A         39  35  85  S14     29.51F WCI 31
#KENT DOT       N/A         40  29  64  N23     N/A    WCI 30
#MAUPIN SCHOOL  N/A         28  25  88  N3      29.63F
#SHANIKO 5WSW   N/A         41  30  65  N29     N/A    WCI 30
#SHANIKO 4NW    N/A         39  34  82  S36     29.54F WCI 26
#TYGH VALLEY 2NEN/A         27  25  92  N5      29.66F
#WAPANITIA AIRPON/A         39  36  89  W2      29.69F
#WASCO DOT      N/A         24  19  81  E15     N/A    WCI 11
#WASCO 5NE      N/A         20  18  92  N5      29.71F
$$

ORZ511-181610-
CENTRAL OREGON

CITY            SKY/WX      TMP DP  RH  WIND    PRES   REMARKS
BEND AIRPORT    CLOUDY      39  34  82  S9      29.63F
MADRAS AIRPORT  LGT RAIN    39  34  82  S25G32  29.62  WCI 28
PRINEVILLE AP   CLOUDY      43  34  70  SE13    29.66F WCI 36
REDMOND AIRPORT MOCLDY      41  32  70  S14G25  29.63F WCI 33
#ASHWOOD SCHOOL N/A         44  37  76  S17G31  29.58F WCI 36
#BEND 1SW       N/A         36  34  92  SW3     N/A
#BEND-AWBREY    N/A         36  35  96  S9      29.65F
#BEND-KIM LN    N/A         38  35  89  E7      29.62F
#CULVER         N/A         42  35  76  S14G31  29.56F WCI 35
#CULVER 8W      N/A         39  34  82  S2      29.64F
#MADRAS 4S      N/A         41   6  23  S23     29.70F WCI 31
#POWELL BUTTE   N/A         43  31  62  S25     29.63F WCI 33
#PRINEVILLE 3N  N/A         43  35  73  E18     29.70F WCI 35
#WARM SPRINGS   N/A         45  38  76  CALM    29.57S

$$


ORZ509-181610-
EAST SLOPES OF OREGON CASCADES

CITY            SKY/WX      TMP DP  RH  WIND    PRES   REMARKS
#CAMP SHERMAN   N/A         36  34  92  CALM    29.69S
#LA PINE 4NW    N/A         35  32  89  CALM    29.80F
#LAVA BUTTE DOT N/A         35  33  92  SE3     N/A
#SISTERS ODOT   N/A         38  N/A N/A CALM    N/A
#SISTERS 3N     N/A         36  34  92  E6      29.64F
#SUNRIVER       N/A         36  34  92  S2      29.73R
#SUTTLE LK DOT  N/A         33  33  100 SW36G56 N/A    WCI 18
#TUMALO 3W      N/A         37  35  92  SE10    29.52F
#WANOGA BUTTE D N/A         30  30  100 CALM    N/A

$$

ORZ044-181610-
LOWER COLUMBIA BASIN...OREGON

CITY            SKY/WX      TMP DP  RH  WIND    PRES   REMARKS
HERMISTON       CLOUDY      21  18  88  CALM    29.66F FOG
#BOARDMAN SCHOOLN/A         25  22  88  CALM    29.71S
#ECHO 8SW       N/A         21  17  84  W1      29.69F
#I-84 EX 198 DOTN/A         20  19  96  S17G26  N/A    WCI  5
#UMATILLA       N/A         24  20  84  CALM    29.66F
$$

ORZ507-181610-
NORTHERN FOOTHILLS OF THE BLUES

CITY            SKY/WX      TMP DP  RH  WIND    PRES   REMARKS
PENDLETON AIRPT CLOUDY      31  30  96  SE7     29.60F FOG
#ADAMS 3WNW     N/A         36  34  92  SE9     29.71S
#ATHENA         N/A         39  31  73  SE10    29.73F
#CAYUSE         N/A         39  35  85  SE48G70 29.62S WCI 25
#HELIX SCHOOL   N/A         39  32  76  N29G39  29.71S WCI 27
#HELIX 3N       N/A         39  32  76  N36     29.62R WCI 26
#HOLDMAN 5SE    N/A         26  25  96  CALM    29.62F
#HOLDMAN 6E     N/A         38  33  82  W7      29.51F
#M-F GROVE ELEM N/A         32  25  75  N6      29.63R
#PENDLETON DNTN N/A         29  24  81  CALM    29.62S
#PDT AQUATIC CTRN/A         29  27  92  N2      29.63S
#PDT SUNRIDGE   N/A         29  26  88  NW5     29.64F
#PENDLETON 7NW  N/A         21  17  84  SW2     30.38S
#PILOT ROCK 1S  N/A         53  35  50  S15G32  29.59R
#PILOT ROCK     N/A         48  37  65  SW20    29.59F WCI 41
#TUTUILLA       N/A         42  31  65  W7      29.66F
#WESTON SCHOOL  N/A         39  29  67  S17G35  29.55R WCI 30

$$

ORZ508-181610-
SOUTHERN FOOTHILLS OF THE BLUES

CITY            SKY/WX      TMP DP  RH  WIND    PRES   REMARKS
LEXINGTON       CLOUDY      45  36  70  S33G41  29.58F WCI 35
#AJAX           N/A         21  13  71  SE3     27.34F
#CONDON SCHOOL  N/A         44  37  76  S17G26  29.57R WCI 36
#CONDON 5W      N/A         41  33  73  S22G36  29.54R WCI 31
#FOSSIL SCHOOL  N/A         45  38  76  SW7     29.60R
#HEPPNER EOC    N/A         46  36  68  S12     29.62S WCI 40
#HEPPNER 4NE    N/A         44  36  73  S13G24  29.69R WCI 38
#LEXINGTON 2SE  N/A         47  35  63  S18G38  29.56F WCI 40
#MIKKALO        N/A         20  16  84  E6      29.71F
#OLEX 4N        N/A         21  19  92  CALM    29.62F
#RUGGS 5NE      N/A         43  34  70  SE13    29.75S WCI 36
#RUGGS 2SW      N/A         43  35  73  S28G45  29.69R WCI 33

$$

ORZ502-503-181610-
BLUE MOUNTAINS

CITY            SKY/WX      TMP DP  RH  WIND    PRES   REMARKS
MEACHAM         MXD PCPN    26  21  81  MISG    29.71S
#BATTLE MTN DOT N/A         32  27  82  S14     N/A    WCI 22
#GREENHORN 9SW  N/A         21  16  81  SE7     26.07F
#HEPPNER 15SE   N/A         39  33  79  E6      25.21F
#LADD CREEK ODOTN/A         23  14  68  S12     N/A    WCI 11
#LONG CREEK HS  N/A         42  37  82  S22G35  N/A    WCI 33
#N POWDER DOT   N/A         21  18  88  SE31    N/A    WCI  2
#PIKES PEAK     N/A         45  37  73  N38G53  27.99S WCI 34
#TOLLGATE       N/A         25  24  96  SW8     29.60S
#TROY SCHOOL    N/A         30  28  92  CALM    29.78F
#UKIAH          N/A         35  33  92  CALM    29.76F
$$

ORZ505-181610-
JOHN DAY BASIN

CITY            SKY/WX      TMP DP  RH  WIND    PRES   REMARKS
JOHN DAY        LGT RAIN    40  32  73  SE21G25 29.76F WCI 30
#JOHN DAY KJDY  N/A         36  N/A N/A CALM    30.11F
#ANTELOPE 9ESE  N/A         42  35  76  W1      N/A
#DAYVILLE SCHOOLN/A         42  32  67  SE7     29.74S
#MITCHELL       N/A         40  38  92  E7      29.86R
#MITCHELL 8NW   N/A         38  33  82  S15G30  29.52S WCI 29
#MONUMENT HS    N/A         36  28  72  E8      29.71R
#MT. VERNON 5SE N/A         35  31  85  E3      29.71S
#SPRAY SCHOOL   N/A         45  N/A N/A CALM    N/A
$$

ORZ506-181610-
OCHOCO AND JOHN DAY HIGHLANDS

CITY            SKY/WX      TMP DP  RH  WIND    PRES   REMARKS
#HORSE RIDGE DO N/A         38  32  79  SE17    N/A    WCI 29
#KEYES SMT DOT  N/A         36  32  85  N23     N/A    WCI 24
#PAULINA SCHOOL N/A         40  31  70  SW10    N/A
#PINE MTN OBS   N/A         29  28  96  S30G47  N/A    WCI 14
#PRAIRIE CITY   N/A         32  24  72  CALM    29.95F
#SENECA         N/A         28  N/A N/A CALM    N/A
#SENECA 9NW     N/A         30  28  92  CALM    29.98S
$$

ORZ049-181610-
GRANDE RONDE VALLEY

CITY            SKY/WX      TMP DP  RH  WIND    PRES   REMARKS
LA GRANDE       MOCLDY      28  19  68  S31G41  29.86F WCI 12
#COVE           N/A         33  27  78  SE8     29.85S
#COVE 6NW       N/A         28  24  85  SE5     30.01R
#ELGIN 3N       N/A         26  16  65  S5      29.82S
#ELGIN 1E       N/A         28  22  78  SE5     N/A
#IMBLER SCHOOL  N/A         25  23  92  S14G28  29.80S WCI 13
#ISLAND CITY 4N N/A         49  49  100 S3      29.42F
$$

ORZ050-181610-
WALLOWA COUNTY

CITY            SKY/WX      TMP DP  RH  WIND    PRES   REMARKS
JOSEPH AIRPORT  MXD PCPN    27  27  100 MISG    29.74F
#IMNAHA SCHOOL  N/A         39  27  62  SE20G40 29.83F WCI 29
#IMNAHA 10S     N/A         37  24  59  SW15G36 29.85S WCI 28
#JOSEPH 3N      N/A         25  20  81  NW2     29.80F
#JOSEPH 3W      N/A         26  22  85  CALM    29.59F
#LOSTINE        N/A         26  25  96  CALM    29.81F
#LOSTINE 3SE    N/A         26  25  96  N1      29.80F
#MT HOWARD 8000 N/A         31  30  96  S23G44  29.67R WCI 18
#PROMISE 1S     N/A         25  23  92  CALM    30.04F
#WALLOWA SCHOOL N/A         22  21  96  CALM    29.79F



$$



USA.gov is the U.S. government's official web portal to all federal, state and local government web resources and services.